Location: Unspecified
(49.9820°N, 20.4363°E)
Time: 22:29:31
(UTC+02:00)

ISS - Pass Details

Date: 19 July 2018
Orbit: 402 x 408 km, 51.6° (Epoch: 20 July)

Event Time Altitude Azimuth Distance (km) Brightness Sun altitude
Rises 21:27:00 0° 195° (SSW) 2,308 -0.3 -6.9°
Reaches altitude 10° 21:29:55 10° 166° (SSE) 1,456 -1.5 -7.2°
Maximum altitude 21:31:29 13° 137° (SE) 1,293 -2.0 -7.4°
Drops below altitude 10° 21:33:04 10° 108° (ESE) 1,463 -1.5 -7.6°
Sets 21:36:01 0° 79° (E) 2,329 -0.3 -7.9°
